Location: *
(47.6569°N, 7.4256°E)
Time: 10:35:48
(UTC+00:00)

IRS-1C Rocket - Pass Details

Date: 14 December 2019
Orbit: 800 x 806 km, 99.0° (Epoch: 21 January)

Event Time Altitude Azimuth Distance (km) Brightness Sun altitude
Rises 16:01:36 0° 142° (SE) 3,308 7.2 -4.1°
Reaches altitude 10° 16:04:02 10° 136° (SE) 2,381 6.4 -4.4°
Maximum altitude 16:08:57 43° 66° (ENE) 1,127 4.5 -5.2°
Drops below altitude 10° 16:13:55 10° 357° (N) 2,393 6.3 -5.9°
Sets 16:16:21 0° 351° (N) 3,327 7.1 -6.3°
